START_TIME,STEP,MOV.,M29,t_acc.,H22,t_acc.,H26,t_acc.,H30,t_acc.
1979-07-21 06:00:31.620 ,1,1,0.,24.0,0.,24.0,0.,24.0,0.,24.0
1979-07-21 06:00:55.620 ,2,1,0.,24.0,0.,24.0,0.,24.0,0.,24.0
1979-07-21 06:01:19.620 ,6,1,0.,24.0,0.,24.0,0.,24.0,0.,24.0
1979-07-21 06:01:43.620 ,5,1,0.,24.0,0.,24.0,0.,24.0,0.,24.0
1979-07-21 06:02:07.620 ,0,1,,0,,0,,0,,0
1979-07-21 06:02:31.620 ,2,1,0.,24.0,0.,24.0,0.,24.0,0.,24.0
1979-07-21 06:02:55.620 ,6,1,0.,24.0,0.,24.0,0.,24.0,0.,24.0
1979-07-21 06:03:19.620 ,5,1,0.,24.0,0.,24.0,0.,24.0,0.,24.0
1979-07-21 06:03:43.620 ,1,1,0.,24.0,0.,24.0,0.,24.0,0.,24.0
1979-07-21 06:04:07.620 ,2,1,0.,24.0,0.,24.0,0.,24.0,0.,24.0
1979-07-21 06:04:31.620 ,6,1,0.,24.0,0.,24.0,0.,24.0,0.,24.0
1979-07-21 06:04:55.620 ,5,1,0.,24.0,0.,24.0,0.,24.0,0.,24.0
1979-07-21 06:05:19.620 ,1,1,0.,24.0,0.,24.0,0.,24.0,0.,24.0
1979-07-21 06:05:43.620 ,0,0,0.,24.0,0.,24.0,0.,24.0,0.,24.0
1979-07-21 06:06:07.620 ,0,0,0.,24.0,0.,24.0,0.,24.0,0.,24.0
1979-07-21 06:06:31.620 ,5,1,0.,24.0,0.,24.0,0.,24.0,0.,24.0
1979-07-21 06:06:55.620 ,5,0,0.,24.0,0.,24.0,0.,24.0,0.,24.0
1979-07-21 06:07:19.620 ,4,1,0.,24.0,0.,24.0,0.,24.0,0.,24.0
1979-07-21 06:07:43.620 ,4,0,0.,24.0,0.,24.0,0.,24.0,0.,24.0
1979-07-21 06:08:07.620 ,3,1,0.,24.0,0.,24.0,0.,24.0,0.,24.0
1979-07-21 06:08:31.620 ,3,0,0.,24.0,0.,24.0,0.,24.0,0.,24.0
1979-07-21 06:08:55.620 ,2,1,1.,24.0,0.,24.0,0.,24.0,0.,24.0
1979-07-21 06:09:19.620 ,2,0,0.,24.0,0.,24.0,0.,24.0,0.,24.0
1979-07-21 06:09:43.620 ,1,1,0.,24.0,0.,24.0,0.,24.0,0.,24.0
1979-07-21 06:10:07.620 ,1,0,0.,24.0,0.,24.0,0.,24.0,0.,24.0
1979-07-21 06:10:31.620 ,0,1,1.,24.0,0.,24.0,0.,24.0,0.,24.0
1979-07-21 06:10:55.620 ,0,0,1.,24.0,0.,24.0,0.,24.0,0.,24.0
1979-07-21 06:11:19.620 ,0,1,0.,24.0,0.,24.0,0.,24.0,0.,24.0
1979-07-21 06:11:43.620 ,0,0,0.,24.0,0.,24.0,0.,24.0,0.,24.0
1979-07-21 06:12:07.620 ,1,1,0.,24.0,0.,24.0,0.,24.0,0.,24.0
1979-07-21 06:12:31.620 ,1,0,0.,24.0,0.,24.0,0.,24.0,0.,24.0
1979-07-21 06:12:55.620 ,2,1,0.,24.0,0.,24.0,0.,24.0,0.,24.0
1979-07-21 06:13:19.620 ,2,0,0.,24.0,0.,24.0,0.,24.0,0.,24.0
1979-07-21 06:13:43.620 ,3,1,0.,24.0,0.,24.0,0.,24.0,0.,24.0
1979-07-21 06:14:07.620 ,3,0,0.,24.0,0.,24.0,0.,24.0,0.,24.0
1979-07-21 06:14:31.620 ,4,1,0.,24.0,0.,24.0,0.,24.0,0.,24.0
1979-07-21 06:14:55.620 ,4,0,0.,24.0,0.,24.0,0.,24.0,0.,24.0
1979-07-21 06:15:19.620 ,5,1,0.,24.0,0.,24.0,0.,24.0,0.,24.0
1979-07-21 06:15:43.620 ,5,0,0.,24.0,0.,24.0,0.,24.0,0.,24.0
1979-07-21 06:16:07.620 ,6,1,0.,24.0,0.,24.0,0.,24.0,0.,24.0
1979-07-21 06:16:31.620 ,6,0,0.,24.0,0.,24.0,0.,24.0,0.,24.0
1979-07-21 06:16:55.620 ,7,1,0.,24.0,0.,24.0,0.,24.0,0.,24.0
1979-07-21 06:17:19.620 ,7,0,0.,24.0,0.,24.0,0.,24.0,0.,24.0
1979-07-21 06:17:43.620 ,7,1,0.,24.0,0.,24.0,0.,24.0,0.,24.0
1979-07-21 06:18:07.620 ,7,0,0.,24.0,0.,24.0,0.,24.0,0.,24.0
1979-07-21 06:18:31.620 ,6,1,0.,24.0,0.,24.0,0.,24.0,0.,24.0
1979-07-21 06:18:55.620 ,6,0,1.,24.0,0.,24.0,0.,24.0,0.,24.0
1979-07-21 06:19:19.620 ,5,1,0.,24.0,0.,24.0,0.,24.0,0.,24.0
1979-07-21 06:19:43.620 ,5,0,0.,24.0,0.,24.0,0.,24.0,0.,24.0
1979-07-21 06:20:07.620 ,4,1,0.,24.0,0.,24.0,0.,24.0,0.,24.0
1979-07-21 06:20:31.620 ,4,0,0.,24.0,0.,24.0,0.,24.0,0.,24.0
1979-07-21 06:20:55.620 ,3,1,0.,24.0,0.,24.0,0.,24.0,0.,24.0
1979-07-21 06:21:19.620 ,3,0,0.,24.0,0.,24.0,0.,24.0,0.,24.0
1979-07-21 06:21:43.620 ,2,1,0.,24.0,0.,24.0,0.,24.0,0.,24.0
1979-07-21 06:22:07.620 ,2,0,0.,24.0,0.,24.0,0.,24.0,0.,24.0
1979-07-21 06:22:31.620 ,1,1,0.,24.0,0.,24.0,0.,24.0,0.,24.0
1979-07-21 06:22:55.620 ,1,0,0.,24.0,0.,24.0,0.,24.0,0.,24.0
1979-07-21 06:23:19.620 ,0,1,0.,24.0,0.,24.0,0.,24.0,0.,24.0
1979-07-21 06:23:43.620 ,0,0,0.,24.0,0.,24.0,0.,24.0,0.,24.0
1979-07-21 06:24:07.620 ,0,1,0.,24.0,0.,24.0,0.,24.0,0.,24.0
1979-07-21 06:24:31.620 ,0,0,0.,24.0,0.,24.0,0.,24.0,0.,24.0
1979-07-21 06:24:55.620 ,1,1,0.,24.0,0.,24.0,0.,24.0,0.,24.0
1979-07-21 06:25:19.620 ,1,0,0.,24.0,0.,24.0,0.,24.0,0.,24.0
1979-07-21 06:25:43.620 ,2,1,0.,24.0,0.,24.0,0.,24.0,0.,24.0
1979-07-21 06:26:07.620 ,2,0,0.,24.0,0.,24.0,0.,24.0,0.,24.0
1979-07-21 06:26:31.620 ,3,1,0.,24.0,0.,24.0,0.,24.0,0.,24.0
1979-07-21 06:26:55.620 ,3,0,0.,24.0,0.,24.0,0.,24.0,0.,24.0
1979-07-21 06:27:19.620 ,4,1,0.,24.0,0.,24.0,0.,24.0,0.,24.0
1979-07-21 06:27:43.620 ,4,0,0.,24.0,0.,24.0,0.,24.0,0.,24.0
1979-07-21 06:28:07.620 ,5,1,0.,24.0,0.,24.0,0.,24.0,0.,24.0
1979-07-21 06:28:31.620 ,5,0,0.,24.0,0.,24.0,0.,24.0,0.,24.0
1979-07-21 06:28:55.620 ,6,1,0.,24.0,0.,24.0,0.,24.0,0.,24.0
1979-07-21 06:29:19.620 ,6,0,0.,24.0,0.,24.0,0.,24.0,0.,24.0
1979-07-21 06:29:43.620 ,7,1,0.,24.0,0.,24.0,0.,24.0,0.,24.0
1979-07-21 06:30:07.620 ,7,0,0.,24.0,0.,24.0,0.,24.0,0.,24.0
1979-07-21 06:30:31.620 ,7,1,0.,24.0,0.,24.0,0.,24.0,0.,24.0
1979-07-21 06:30:55.620 ,7,0,0.,24.0,0.,24.0,0.,24.0,0.,24.0
1979-07-21 06:31:19.620 ,6,1,0.,24.0,0.,24.0,0.,24.0,0.,24.0
1979-07-21 06:31:43.620 ,6,0,0.,24.0,0.,24.0,0.,24.0,0.,24.0
1979-07-21 06:32:07.620 ,5,1,0.,24.0,0.,24.0,0.,24.0,0.,24.0
1979-07-21 06:32:31.620 ,5,0,0.,24.0,0.,24.0,0.,24.0,0.,24.0
1979-07-21 06:32:55.620 ,0,0,0.,24.0,0.,24.0,0.,24.0,0.,24.0
1979-07-21 06:33:19.620 ,0,0,,0,,0,,0,,0
1979-07-21 06:33:20.820 ,0,0,,0,,0,,0,,0
1979-07-21 06:33:43.620 ,3,1,0.,24.0,0.,24.0,0.,24.0,0.,24.0
1979-07-21 06:34:07.620 ,3,0,0.,24.0,0.,24.0,0.,24.0,0.,24.0
1979-07-21 06:34:31.620 ,2,1,0.,24.0,0.,24.0,0.,24.0,0.,24.0
1979-07-21 06:34:55.620 ,2,0,0.,24.0,0.,24.0,0.,24.0,0.,24.0
1979-07-21 06:35:19.620 ,1,1,0.,24.0,0.,24.0,0.,24.0,0.,24.0
1979-07-21 06:35:43.620 ,1,0,0.,24.0,0.,24.0,0.,24.0,1.,24.0
1979-07-21 06:36:07.620 ,0,1,0.,24.0,0.,24.0,0.,24.0,0.,24.0
1979-07-21 06:36:31.620 ,0,0,0.,24.0,0.,24.0,0.,24.0,0.,24.0
1979-07-21 06:36:55.620 ,0,1,0.,24.0,0.,24.0,0.,24.0,0.,24.0
1979-07-21 06:37:19.620 ,0,0,0.,24.0,0.,24.0,0.,24.0,0.,24.0
1979-07-21 06:37:43.620 ,1,1,0.,24.0,0.,24.0,0.,24.0,0.,24.0
1979-07-21 06:38:07.620 ,1,0,0.,24.0,0.,24.0,0.,24.0,0.,24.0
1979-07-21 06:38:31.620 ,2,1,0.,24.0,0.,24.0,0.,24.0,0.,24.0
1979-07-21 06:38:55.620 ,2,0,0.,24.0,0.,24.0,0.,24.0,0.,24.0
1979-07-21 06:39:19.620 ,3,1,0.,24.0,0.,24.0,0.,24.0,0.,24.0
1979-07-21 06:39:43.620 ,3,0,0.,24.0,0.,24.0,0.,24.0,0.,24.0
1979-07-21 06:40:07.620 ,4,1,0.,24.0,0.,24.0,0.,24.0,0.,24.0
1979-07-21 06:40:31.620 ,4,0,0.,24.0,0.,24.0,0.,24.0,0.,24.0
1979-07-21 06:40:55.620 ,5,1,0.,24.0,0.,24.0,0.,24.0,0.,24.0
1979-07-21 06:41:19.620 ,5,0,0.,24.0,0.,24.0,0.,24.0,0.,24.0
1979-07-21 06:41:43.620 ,6,1,0.,24.0,0.,24.0,0.,24.0,0.,24.0
1979-07-21 06:42:07.620 ,6,0,0.,24.0,0.,24.0,0.,24.0,0.,24.0
1979-07-21 06:42:31.620 ,7,0,0.,24.0,0.,24.0,0.,24.0,0.,24.0
1979-07-21 06:42:55.620 ,7,0,0.,24.0,0.,24.0,0.,24.0,0.,24.0
1979-07-21 06:43:19.620 ,5,1,0.,24.0,0.,24.0,0.,24.0,0.,24.0
1979-07-21 06:43:43.620 ,1,1,0.,24.0,0.,24.0,0.,24.0,0.,24.0
1979-07-21 06:44:07.620 ,2,1,0.,24.0,0.,24.0,0.,24.0,0.,24.0
1979-07-21 06:44:31.620 ,6,1,0.,24.0,0.,24.0,0.,24.0,0.,24.0
1979-07-21 06:44:55.620 ,5,1,0.,24.0,0.,24.0,0.,24.0,0.,24.0
1979-07-21 06:45:19.620 ,1,1,0.,24.0,0.,24.0,0.,24.0,0.,24.0
1979-07-21 06:45:43.620 ,2,1,0.,24.0,0.,24.0,0.,24.0,0.,24.0
1979-07-21 06:46:07.620 ,6,1,0.,24.0,0.,24.0,0.,24.0,0.,24.0
1979-07-21 06:46:31.620 ,5,1,0.,24.0,0.,24.0,0.,24.0,0.,24.0
1979-07-21 06:46:55.620 ,1,1,0.,24.0,0.,24.0,0.,24.0,0.,24.0
1979-07-21 06:47:19.620 ,2,1,0.,24.0,0.,24.0,0.,24.0,0.,24.0
1979-07-21 06:47:43.620 ,6,1,0.,24.0,0.,24.0,0.,24.0,0.,24.0
1979-07-21 06:48:07.620 ,5,1,0.,24.0,0.,24.0,0.,24.0,0.,24.0
1979-07-21 06:48:31.620 ,1,1,0.,24.0,0.,24.0,0.,24.0,0.,24.0
1979-07-21 06:48:55.620 ,2,1,0.,24.0,0.,24.0,0.,24.0,0.,24.0
1979-07-21 06:49:19.620 ,6,1,0.,24.0,0.,24.0,0.,24.0,0.,24.0
1979-07-21 06:49:43.620 ,5,1,0.,24.0,0.,24.0,0.,24.0,0.,24.0
1979-07-21 06:50:07.620 ,1,1,0.,24.0,0.,24.0,0.,24.0,0.,24.0
1979-07-21 06:50:31.620 ,2,1,0.,24.0,0.,24.0,0.,24.0,0.,24.0
1979-07-21 06:50:55.620 ,6,1,0.,24.0,0.,24.0,0.,24.0,0.,24.0
1979-07-21 06:51:19.620 ,5,1,0.,24.0,0.,24.0,0.,24.0,0.,24.0
1979-07-21 06:51:43.620 ,1,1,0.,24.0,0.,24.0,0.,24.0,0.,24.0
1979-07-21 06:52:07.620 ,2,1,0.,24.0,0.,24.0,0.,24.0,0.,24.0
1979-07-21 06:52:31.620 ,6,1,0.,24.0,0.,24.0,0.,24.0,0.,24.0
1979-07-21 06:52:55.620 ,5,1,1.,24.0,0.,24.0,0.,24.0,0.,24.0
1979-07-21 06:53:19.620 ,1,1,0.,24.0,0.,24.0,0.,24.0,0.,24.0
1979-07-21 06:53:43.620 ,0,0,0.,24.0,0.,24.0,0.,24.0,0.,24.0
1979-07-21 06:54:07.620 ,0,0,0.,24.0,0.,24.0,0.,24.0,0.,24.0
1979-07-21 06:54:31.620 ,5,1,0.,24.0,0.,24.0,0.,24.0,0.,24.0
1979-07-21 06:54:55.620 ,5,0,0.,24.0,0.,24.0,0.,24.0,0.,24.0
1979-07-21 06:55:19.620 ,4,1,0.,24.0,0.,24.0,0.,24.0,0.,24.0
1979-07-21 06:55:43.620 ,4,0,0.,24.0,0.,24.0,0.,24.0,0.,24.0
1979-07-21 06:56:07.620 ,3,1,0.,24.0,0.,24.0,0.,24.0,0.,24.0
1979-07-21 06:56:31.620 ,3,0,0.,24.0,0.,24.0,0.,24.0,0.,24.0
1979-07-21 06:56:55.620 ,2,1,0.,24.0,0.,24.0,0.,24.0,0.,24.0
1979-07-21 06:57:19.620 ,2,0,0.,24.0,0.,24.0,0.,24.0,0.,24.0
1979-07-21 06:57:43.620 ,1,1,0.,24.0,0.,24.0,0.,24.0,0.,24.0
1979-07-21 06:58:07.620 ,1,0,0.,24.0,0.,24.0,0.,24.0,0.,24.0
1979-07-21 06:58:31.620 ,0,1,0.,24.0,0.,24.0,0.,24.0,0.,24.0
1979-07-21 06:58:55.620 ,0,0,0.,24.0,0.,24.0,0.,24.0,0.,24.0
1979-07-21 06:59:19.620 ,0,1,0.,24.0,0.,24.0,0.,24.0,0.,24.0
1979-07-21 06:59:43.620 ,0,0,0.,24.0,0.,24.0,0.,24.0,0.,24.0
1979-07-21 07:00:07.620 ,1,1,0.,24.0,0.,24.0,0.,24.0,0.,24.0
1979-07-21 07:00:31.620 ,1,0,0.,24.0,0.,24.0,0.,24.0,0.,24.0
1979-07-21 07:00:55.620 ,2,1,0.,24.0,0.,24.0,0.,24.0,0.,24.0
1979-07-21 07:01:19.620 ,2,0,0.,24.0,0.,24.0,0.,24.0,0.,24.0
1979-07-21 07:01:43.620 ,3,1,0.,24.0,0.,24.0,0.,24.0,0.,24.0
1979-07-21 07:02:07.620 ,3,0,,0,,0,,0,,0
1979-07-21 07:02:31.620 ,4,1,0.,24.0,0.,24.0,0.,24.0,0.,24.0
1979-07-21 07:02:55.620 ,4,0,0.,24.0,0.,24.0,0.,24.0,0.,24.0
1979-07-21 07:03:19.620 ,5,1,0.,24.0,0.,24.0,0.,24.0,0.,24.0
1979-07-21 07:03:43.620 ,5,0,0.,24.0,0.,24.0,0.,24.0,0.,24.0
1979-07-21 07:04:07.620 ,6,1,0.,24.0,0.,24.0,0.,24.0,0.,24.0
1979-07-21 07:04:31.620 ,6,0,0.,24.0,0.,24.0,0.,24.0,0.,24.0
1979-07-21 07:04:55.620 ,7,1,0.,24.0,0.,24.0,0.,24.0,0.,24.0
1979-07-21 07:05:19.620 ,7,0,0.,24.0,0.,24.0,0.,24.0,0.,24.0
1979-07-21 07:05:43.620 ,7,1,0.,24.0,0.,24.0,0.,24.0,0.,24.0
1979-07-21 07:06:07.620 ,7,0,0.,24.0,0.,24.0,0.,24.0,0.,24.0
1979-07-21 07:06:31.620 ,6,1,0.,24.0,0.,24.0,0.,24.0,0.,24.0
1979-07-21 07:06:55.620 ,6,0,0.,24.0,0.,24.0,0.,24.0,0.,24.0
1979-07-21 07:07:19.620 ,5,1,0.,24.0,0.,24.0,0.,24.0,0.,24.0
1979-07-21 07:07:43.620 ,5,0,0.,24.0,0.,24.0,0.,24.0,0.,24.0
1979-07-21 07:08:07.620 ,4,1,0.,24.0,0.,24.0,0.,24.0,0.,24.0
1979-07-21 07:08:31.620 ,4,0,0.,24.0,0.,24.0,0.,24.0,0.,24.0
1979-07-21 07:08:55.620 ,3,1,0.,24.0,0.,24.0,0.,24.0,0.,24.0
1979-07-21 07:09:19.620 ,3,0,0.,24.0,0.,24.0,0.,24.0,0.,24.0
1979-07-21 07:09:43.620 ,2,1,0.,24.0,0.,24.0,0.,24.0,0.,24.0
1979-07-21 07:10:07.620 ,2,0,0.,24.0,0.,24.0,0.,24.0,0.,24.0
1979-07-21 07:10:31.620 ,1,1,0.,24.0,0.,24.0,0.,24.0,0.,24.0
1979-07-21 07:10:55.620 ,1,0,0.,24.0,0.,24.0,0.,24.0,0.,24.0
1979-07-21 07:11:19.620 ,0,1,0.,24.0,0.,24.0,0.,24.0,0.,24.0
1979-07-21 07:11:43.620 ,0,0,0.,24.0,0.,24.0,0.,24.0,0.,24.0
1979-07-21 07:12:07.620 ,0,1,0.,24.0,0.,24.0,0.,24.0,0.,24.0
1979-07-21 07:12:31.620 ,0,0,0.,24.0,0.,24.0,0.,24.0,0.,24.0
1979-07-21 07:12:55.620 ,1,1,0.,24.0,0.,24.0,0.,24.0,0.,24.0
1979-07-21 07:13:19.620 ,1,0,0.,24.0,0.,24.0,0.,24.0,0.,24.0
1979-07-21 07:13:43.620 ,2,1,0.,24.0,0.,24.0,0.,24.0,0.,24.0
1979-07-21 07:14:07.620 ,2,0,0.,24.0,0.,24.0,0.,24.0,0.,24.0
1979-07-21 07:14:31.620 ,3,1,0.,24.0,0.,24.0,0.,24.0,0.,24.0
1979-07-21 07:14:55.620 ,3,0,0.,24.0,0.,24.0,0.,24.0,0.,24.0
1979-07-21 07:15:19.620 ,4,1,0.,24.0,0.,24.0,0.,24.0,0.,24.0
1979-07-21 07:15:43.620 ,4,0,0.,24.0,0.,24.0,0.,24.0,0.,24.0
1979-07-21 07:16:07.620 ,5,1,0.,24.0,0.,24.0,0.,24.0,0.,24.0
1979-07-21 07:16:31.620 ,5,0,0.,24.0,0.,24.0,0.,24.0,0.,24.0
1979-07-21 07:16:55.620 ,6,1,0.,24.0,0.,24.0,0.,24.0,0.,24.0
1979-07-21 07:17:19.620 ,6,0,0.,24.0,0.,24.0,0.,24.0,0.,24.0
1979-07-21 07:17:43.620 ,7,1,0.,24.0,0.,24.0,0.,24.0,0.,24.0
1979-07-21 07:18:07.620 ,7,0,0.,24.0,0.,24.0,0.,24.0,0.,24.0
1979-07-21 07:18:31.620 ,7,1,0.,24.0,0.,24.0,0.,24.0,0.,24.0
1979-07-21 07:18:55.620 ,7,0,0.,24.0,0.,24.0,0.,24.0,0.,24.0
1979-07-21 07:19:19.620 ,6,1,0.,24.0,0.,24.0,0.,24.0,0.,24.0
1979-07-21 07:19:43.620 ,6,0,0.,24.0,0.,24.0,0.,24.0,0.,24.0
1979-07-21 07:20:07.620 ,5,1,0.,24.0,0.,24.0,0.,24.0,0.,24.0
1979-07-21 07:20:31.620 ,5,0,0.,24.0,0.,24.0,0.,24.0,0.,24.0
1979-07-21 07:20:55.620 ,4,1,0.,24.0,0.,24.0,0.,24.0,0.,24.0
1979-07-21 07:21:19.620 ,4,0,0.,24.0,0.,24.0,0.,24.0,0.,24.0
1979-07-21 07:21:43.620 ,3,1,0.,24.0,0.,24.0,0.,24.0,0.,24.0
1979-07-21 07:22:07.620 ,3,0,0.,24.0,0.,24.0,0.,24.0,0.,24.0
1979-07-21 07:22:31.620 ,2,1,0.,24.0,0.,24.0,0.,24.0,0.,24.0
1979-07-21 07:22:55.620 ,2,0,0.,24.0,0.,24.0,0.,24.0,0.,24.0
1979-07-21 07:23:19.620 ,1,1,1.,24.0,0.,24.0,0.,24.0,0.,24.0
1979-07-21 07:23:43.620 ,1,0,0.,24.0,0.,24.0,0.,24.0,0.,24.0
1979-07-21 07:24:07.620 ,0,1,0.,24.0,0.,24.0,0.,24.0,0.,24.0
1979-07-21 07:24:31.620 ,0,0,0.,24.0,0.,24.0,0.,24.0,0.,24.0
1979-07-21 07:24:55.620 ,0,1,0.,24.0,0.,24.0,0.,24.0,0.,24.0
1979-07-21 07:25:19.620 ,0,0,0.,24.0,0.,24.0,0.,24.0,0.,24.0
1979-07-21 07:25:43.620 ,1,1,0.,24.0,0.,24.0,0.,24.0,0.,24.0
1979-07-21 07:26:07.620 ,1,0,0.,24.0,0.,24.0,0.,24.0,0.,24.0
1979-07-21 07:26:31.620 ,2,1,0.,24.0,0.,24.0,0.,24.0,0.,24.0
1979-07-21 07:26:55.620 ,2,0,0.,24.0,0.,24.0,0.,24.0,0.,24.0
1979-07-21 07:27:19.620 ,3,1,0.,24.0,0.,24.0,0.,24.0,0.,24.0
1979-07-21 07:27:43.620 ,3,0,0.,24.0,0.,24.0,0.,24.0,0.,24.0
1979-07-21 07:28:07.620 ,4,1,0.,24.0,0.,24.0,0.,24.0,0.,24.0
1979-07-21 07:28:31.620 ,4,0,0.,24.0,0.,24.0,0.,24.0,0.,24.0
1979-07-21 07:28:55.620 ,5,1,0.,24.0,0.,24.0,0.,24.0,0.,24.0
1979-07-21 07:29:19.620 ,5,0,0.,24.0,0.,24.0,0.,24.0,0.,24.0
1979-07-21 07:29:43.620 ,6,1,0.,24.0,0.,24.0,0.,24.0,0.,24.0
1979-07-21 07:30:07.620 ,6,0,0.,24.0,0.,24.0,0.,24.0,0.,24.0
1979-07-21 07:30:31.620 ,7,0,0.,24.0,0.,24.0,0.,24.0,0.,24.0
1979-07-21 07:30:55.620 ,7,0,0.,24.0,0.,24.0,0.,24.0,0.,24.0
1979-07-21 07:31:19.620 ,5,1,0.,24.0,0.,24.0,0.,24.0,0.,24.0
1979-07-21 07:31:43.620 ,1,1,0.,24.0,0.,24.0,0.,24.0,0.,24.0
1979-07-21 07:32:07.610 ,2,1,0.,24.0,0.,24.0,0.,24.0,0.,24.0
1979-07-21 07:32:31.610 ,6,1,0.,24.0,0.,24.0,0.,24.0,0.,24.0
1979-07-21 07:32:55.610 ,5,1,0.,24.0,0.,24.0,0.,24.0,0.,24.0
1979-07-21 07:33:19.610 ,1,1,0.,24.0,0.,24.0,0.,24.0,0.,24.0
1979-07-21 07:33:43.610 ,0,0,0.,24.0,0.,24.0,0.,24.0,0.,24.0
1979-07-21 07:34:07.610 ,0,0,0.,24.0,0.,24.0,0.,24.0,0.,24.0
1979-07-21 07:34:31.610 ,5,1,0.,24.0,0.,24.0,0.,24.0,0.,24.0
1979-07-21 07:34:55.610 ,1,1,0.,24.0,0.,24.0,0.,24.0,0.,24.0
1979-07-21 07:35:19.610 ,0,0,0.,24.0,0.,24.0,0.,24.0,0.,24.0
1979-07-21 07:35:43.610 ,6,1,0.,24.0,0.,24.0,0.,24.0,0.,24.0
1979-07-21 07:36:07.610 ,5,1,0.,24.0,0.,24.0,0.,24.0,0.,24.0
1979-07-21 07:36:31.610 ,1,1,0.,24.0,0.,24.0,0.,24.0,0.,24.0
1979-07-21 07:36:55.610 ,2,1,0.,24.0,0.,24.0,0.,24.0,0.,24.0
1979-07-21 07:37:19.610 ,6,1,0.,24.0,0.,24.0,0.,24.0,0.,24.0
1979-07-21 07:37:43.610 ,5,1,0.,24.0,0.,24.0,0.,24.0,0.,24.0
1979-07-21 07:38:07.610 ,1,1,0.,24.0,0.,24.0,0.,24.0,0.,24.0
1979-07-21 07:38:31.610 ,2,1,0.,24.0,0.,24.0,0.,24.0,0.,24.0
1979-07-21 07:38:55.610 ,6,1,0.,24.0,0.,24.0,0.,24.0,0.,24.0
1979-07-21 07:39:19.610 ,5,1,0.,24.0,0.,24.0,0.,24.0,0.,24.0
1979-07-21 07:39:43.610 ,1,1,0.,24.0,0.,24.0,0.,24.0,0.,24.0
1979-07-21 07:40:07.610 ,0,0,0.,24.0,0.,24.0,0.,24.0,0.,24.0
1979-07-21 07:40:31.610 ,0,0,,0,,0,,0,,0
1979-07-21 07:40:55.610 ,5,1,0.,24.0,0.,24.0,0.,24.0,0.,24.0
1979-07-21 07:41:19.610 ,1,1,0.,24.0,0.,24.0,0.,24.0,0.,24.0
1979-07-21 07:41:44.810 ,0,0,0.,24.0,0.,24.0,0.,24.0,0.,24.0
1979-07-21 07:42:07.610 ,0,0,0.,24.0,0.,24.0,0.,24.0,0.,24.0
1979-07-21 07:42:31.610 ,5,1,0.,24.0,0.,24.0,0.,24.0,0.,24.0
1979-07-21 07:42:55.610 ,5,0,0.,24.0,0.,24.0,0.,24.0,0.,24.0
1979-07-21 07:43:19.610 ,4,1,0.,24.0,0.,24.0,0.,24.0,0.,24.0
1979-07-21 07:43:43.610 ,4,0,0.,24.0,0.,24.0,0.,24.0,0.,24.0
1979-07-21 07:44:07.610 ,3,1,0.,24.0,0.,24.0,0.,24.0,0.,24.0
1979-07-21 07:44:31.610 ,0,0,0.,24.0,0.,24.0,0.,24.0,0.,24.0
1979-07-21 07:44:55.610 ,2,1,0.,24.0,0.,24.0,0.,24.0,0.,24.0
1979-07-21 07:45:19.610 ,2,0,0.,24.0,0.,24.0,0.,24.0,0.,24.0
1979-07-21 07:45:43.610 ,1,1,0.,24.0,0.,24.0,0.,24.0,0.,24.0
1979-07-21 07:46:07.610 ,1,0,0.,24.0,0.,24.0,0.,24.0,0.,24.0
1979-07-21 07:46:31.610 ,0,1,0.,24.0,0.,24.0,0.,24.0,0.,24.0
1979-07-21 07:46:55.610 ,0,0,0.,24.0,0.,24.0,0.,24.0,0.,24.0
1979-07-21 07:47:19.610 ,0,1,0.,24.0,0.,24.0,0.,24.0,0.,24.0
1979-07-21 07:47:43.610 ,0,0,0.,24.0,0.,24.0,0.,24.0,0.,24.0
1979-07-21 07:48:07.610 ,1,1,0.,24.0,0.,24.0,0.,24.0,0.,24.0
1979-07-21 07:48:31.610 ,1,0,0.,24.0,0.,24.0,0.,24.0,0.,24.0
1979-07-21 07:48:55.610 ,2,1,0.,24.0,0.,24.0,0.,24.0,0.,24.0
1979-07-21 07:49:19.610 ,2,0,0.,24.0,0.,24.0,0.,24.0,0.,24.0
1979-07-21 07:49:43.610 ,3,1,0.,24.0,0.,24.0,0.,24.0,0.,24.0
1979-07-21 07:50:07.610 ,3,0,0.,24.0,0.,24.0,0.,24.0,0.,24.0
1979-07-21 07:50:31.610 ,4,1,0.,24.0,0.,24.0,0.,24.0,0.,24.0
1979-07-21 07:50:55.610 ,4,0,0.,24.0,0.,24.0,0.,24.0,0.,24.0
1979-07-21 07:51:19.610 ,5,1,1.,24.0,0.,24.0,0.,24.0,0.,24.0
1979-07-21 07:51:43.610 ,5,0,0.,24.0,0.,24.0,0.,24.0,0.,24.0
1979-07-21 07:52:07.610 ,6,1,0.,24.0,0.,24.0,0.,24.0,0.,24.0
1979-07-21 07:52:31.610 ,6,0,0.,24.0,0.,24.0,0.,24.0,0.,24.0
1979-07-21 07:52:55.610 ,7,1,0.,24.0,0.,24.0,0.,24.0,0.,24.0
1979-07-21 07:53:19.610 ,7,0,0.,24.0,0.,24.0,0.,24.0,0.,24.0
1979-07-21 07:53:43.610 ,7,1,0.,24.0,0.,24.0,0.,24.0,0.,24.0
1979-07-21 07:54:07.610 ,7,0,0.,24.0,0.,24.0,0.,24.0,0.,24.0
1979-07-21 07:54:31.610 ,6,1,0.,24.0,0.,24.0,0.,24.0,0.,24.0
1979-07-21 07:54:55.610 ,6,0,0.,24.0,0.,24.0,0.,24.0,0.,24.0
1979-07-21 07:55:19.610 ,5,1,0.,24.0,0.,24.0,0.,24.0,0.,24.0
1979-07-21 07:55:43.610 ,5,0,0.,24.0,0.,24.0,0.,24.0,0.,24.0
1979-07-21 07:56:07.610 ,4,1,0.,24.0,0.,24.0,0.,24.0,0.,24.0
1979-07-21 07:56:31.610 ,4,0,0.,24.0,0.,24.0,0.,24.0,0.,24.0
1979-07-21 07:56:55.610 ,3,1,0.,24.0,0.,24.0,0.,24.0,0.,24.0
1979-07-21 07:57:19.610 ,3,0,0.,24.0,0.,24.0,0.,24.0,0.,24.0
1979-07-21 07:57:43.610 ,2,1,0.,24.0,0.,24.0,0.,24.0,0.,24.0
1979-07-21 07:58:07.610 ,2,0,0.,24.0,0.,24.0,0.,24.0,0.,24.0
1979-07-21 07:58:31.610 ,1,1,0.,24.0,0.,24.0,0.,24.0,0.,24.0
1979-07-21 07:58:55.610 ,1,0,0.,24.0,0.,24.0,0.,24.0,0.,24.0
1979-07-21 07:59:19.610 ,0,1,0.,24.0,0.,24.0,0.,24.0,0.,24.0
1979-07-21 07:59:43.610 ,0,0,0.,24.0,0.,24.0,0.,24.0,0.,24.0
1979-07-21 08:00:07.610 ,0,1,0.,24.0,0.,24.0,0.,24.0,0.,24.0
1979-07-21 08:00:31.610 ,0,0,0.,24.0,0.,24.0,0.,24.0,0.,24.0
1979-07-21 08:00:56.810 ,1,0,,0,,0,,0,,0
1979-07-21 08:01:19.610 ,1,0,,0,,0,,0,,0
1979-07-21 08:01:43.610 ,2,1,0.,24.0,0.,24.0,0.,24.0,0.,24.0
1979-07-21 08:02:07.610 ,2,0,0.,24.0,0.,24.0,0.,24.0,0.,24.0
1979-07-21 08:02:31.610 ,3,1,0.,24.0,0.,24.0,0.,24.0,0.,24.0
1979-07-21 08:02:55.610 ,3,0,0.,24.0,0.,24.0,0.,24.0,0.,24.0
1979-07-21 08:03:19.610 ,4,1,0.,24.0,0.,24.0,0.,24.0,0.,24.0
1979-07-21 08:03:43.610 ,4,0,0.,24.0,0.,24.0,0.,24.0,0.,24.0
1979-07-21 08:04:07.610 ,5,1,0.,24.0,0.,24.0,0.,24.0,0.,24.0
1979-07-21 08:04:31.610 ,5,0,0.,24.0,0.,24.0,0.,24.0,0.,24.0
1979-07-21 08:04:55.610 ,6,1,0.,24.0,0.,24.0,0.,24.0,0.,24.0
1979-07-21 08:05:19.610 ,6,0,0.,24.0,0.,24.0,0.,24.0,0.,24.0
1979-07-21 08:05:43.610 ,7,1,0.,24.0,0.,24.0,0.,24.0,0.,24.0
1979-07-21 08:06:07.610 ,7,0,0.,24.0,0.,24.0,0.,24.0,0.,24.0
1979-07-21 08:06:31.610 ,7,1,0.,24.0,0.,24.0,0.,24.0,0.,24.0
1979-07-21 08:06:55.610 ,7,0,0.,24.0,0.,24.0,0.,24.0,0.,24.0
1979-07-21 08:07:19.610 ,0,0,0.,24.0,8192.,24.0,0.,24.0,0.,24.0
1979-07-21 08:07:43.610 ,0,0,0.,24.0,0.,24.0,0.,24.0,0.,24.0
1979-07-21 08:08:07.610 ,5,1,0.,24.0,0.,24.0,0.,24.0,0.,24.0
1979-07-21 08:08:31.610 ,5,0,0.,24.0,0.,24.0,0.,24.0,0.,24.0
1979-07-21 08:08:55.610 ,4,1,0.,24.0,0.,24.0,0.,24.0,0.,24.0
1979-07-21 08:09:19.610 ,4,0,0.,24.0,0.,24.0,0.,24.0,0.,24.0
1979-07-21 08:09:43.610 ,3,1,0.,24.0,0.,24.0,0.,24.0,0.,24.0
1979-07-21 08:10:07.610 ,3,0,0.,24.0,0.,24.0,0.,24.0,0.,24.0
1979-07-21 08:10:31.610 ,2,1,0.,24.0,0.,24.0,0.,24.0,0.,24.0
1979-07-21 08:10:55.610 ,2,0,0.,24.0,0.,24.0,0.,24.0,0.,24.0
1979-07-21 08:11:19.610 ,1,1,0.,24.0,0.,24.0,0.,24.0,0.,24.0
1979-07-21 08:11:43.610 ,1,0,0.,24.0,0.,24.0,0.,24.0,0.,24.0
1979-07-21 08:12:07.610 ,0,1,0.,24.0,0.,24.0,0.,24.0,0.,24.0
1979-07-21 08:12:31.610 ,0,0,0.,24.0,0.,24.0,0.,24.0,0.,24.0
1979-07-21 08:12:55.610 ,0,1,0.,24.0,0.,24.0,0.,24.0,0.,24.0
1979-07-21 08:13:19.610 ,0,0,0.,24.0,0.,24.0,0.,24.0,0.,24.0
1979-07-21 08:13:43.610 ,1,1,0.,24.0,0.,24.0,0.,24.0,0.,24.0
1979-07-21 08:14:07.610 ,1,0,0.,24.0,0.,24.0,0.,24.0,0.,24.0
1979-07-21 08:14:31.610 ,2,1,0.,24.0,0.,24.0,0.,24.0,0.,24.0
1979-07-21 08:14:55.610 ,2,0,0.,24.0,0.,24.0,0.,24.0,0.,24.0
1979-07-21 08:15:19.610 ,3,1,0.,24.0,0.,24.0,0.,24.0,0.,24.0
1979-07-21 08:15:43.610 ,3,0,0.,24.0,0.,24.0,0.,24.0,0.,24.0
1979-07-21 08:16:07.610 ,4,1,0.,24.0,0.,24.0,0.,24.0,0.,24.0
1979-07-21 08:16:31.610 ,4,0,0.,24.0,0.,24.0,0.,24.0,0.,24.0
1979-07-21 08:16:55.610 ,5,1,0.,24.0,0.,24.0,0.,24.0,0.,24.0
1979-07-21 08:17:19.610 ,5,0,0.,24.0,0.,24.0,0.,24.0,0.,24.0
1979-07-21 08:17:43.610 ,6,1,1.,24.0,0.,24.0,0.,24.0,0.,24.0
1979-07-21 08:18:07.610 ,6,0,0.,24.0,0.,24.0,0.,24.0,0.,24.0
1979-07-21 08:18:31.610 ,7,0,0.,24.0,0.,24.0,0.,24.0,0.,24.0
1979-07-21 08:18:55.610 ,7,0,0.,24.0,0.,24.0,0.,24.0,0.,24.0
1979-07-21 08:19:19.610 ,5,1,0.,24.0,0.,24.0,0.,24.0,0.,24.0
1979-07-21 08:19:43.610 ,1,1,0.,24.0,0.,24.0,0.,24.0,0.,24.0
1979-07-21 08:20:07.610 ,2,1,0.,24.0,0.,24.0,0.,24.0,0.,24.0
1979-07-21 08:20:31.610 ,6,1,0.,24.0,0.,24.0,0.,24.0,0.,24.0
1979-07-21 08:20:55.610 ,5,1,0.,24.0,0.,24.0,0.,24.0,0.,24.0
1979-07-21 08:21:19.610 ,1,1,0.,24.0,0.,24.0,0.,24.0,0.,24.0
1979-07-21 08:21:43.610 ,2,1,0.,24.0,0.,24.0,0.,24.0,0.,24.0
1979-07-21 08:22:07.610 ,6,1,0.,24.0,0.,24.0,0.,24.0,0.,24.0
1979-07-21 08:22:31.610 ,5,1,0.,24.0,0.,24.0,0.,24.0,0.,24.0
1979-07-21 08:22:55.610 ,1,1,0.,24.0,0.,24.0,0.,24.0,0.,24.0
1979-07-21 08:23:19.610 ,2,1,0.,24.0,0.,24.0,0.,24.0,0.,24.0
1979-07-21 08:23:43.610 ,6,1,0.,24.0,0.,24.0,0.,24.0,0.,24.0
1979-07-21 08:24:07.610 ,5,1,0.,24.0,0.,24.0,0.,24.0,0.,24.0
1979-07-21 08:24:31.610 ,1,1,0.,24.0,0.,24.0,0.,24.0,0.,24.0
1979-07-21 08:24:55.610 ,2,1,0.,24.0,0.,24.0,0.,24.0,0.,24.0
1979-07-21 08:25:19.610 ,6,1,0.,24.0,0.,24.0,0.,24.0,0.,24.0
1979-07-21 08:25:43.610 ,5,1,0.,24.0,0.,24.0,0.,24.0,0.,24.0
1979-07-21 08:26:07.610 ,1,1,0.,24.0,0.,24.0,0.,24.0,0.,24.0
1979-07-21 08:26:31.610 ,2,1,0.,24.0,0.,24.0,0.,24.0,0.,24.0
1979-07-21 08:26:55.610 ,6,1,0.,24.0,0.,24.0,0.,24.0,0.,24.0
1979-07-21 08:27:19.610 ,5,1,0.,24.0,0.,24.0,0.,24.0,0.,24.0
1979-07-21 08:27:43.610 ,1,1,0.,24.0,0.,24.0,0.,24.0,0.,24.0
1979-07-21 08:28:07.610 ,2,1,0.,24.0,0.,24.0,0.,24.0,0.,24.0
1979-07-21 08:28:31.610 ,6,1,0.,24.0,0.,24.0,0.,24.0,0.,24.0
1979-07-21 08:28:55.610 ,5,1,0.,24.0,0.,24.0,0.,24.0,0.,24.0
1979-07-21 08:29:19.610 ,1,1,0.,24.0,0.,24.0,0.,24.0,0.,24.0
1979-07-21 08:29:43.610 ,0,0,0.,24.0,0.,24.0,0.,24.0,0.,24.0
1979-07-21 08:30:07.610 ,0,0,0.,24.0,0.,24.0,0.,24.0,0.,24.0
1979-07-21 08:30:31.610 ,5,1,0.,24.0,0.,24.0,0.,24.0,0.,24.0
1979-07-21 08:30:55.610 ,5,0,0.,24.0,0.,24.0,0.,24.0,0.,24.0
1979-07-21 08:31:19.610 ,4,1,0.,24.0,0.,24.0,0.,24.0,0.,24.0
1979-07-21 08:31:43.610 ,4,0,0.,24.0,0.,24.0,0.,24.0,0.,24.0
1979-07-21 08:32:07.610 ,3,1,0.,24.0,0.,24.0,0.,24.0,0.,24.0
1979-07-21 08:32:31.610 ,3,0,0.,24.0,0.,24.0,0.,24.0,0.,24.0
1979-07-21 08:32:55.610 ,2,1,0.,24.0,0.,24.0,0.,24.0,0.,24.0
1979-07-21 08:33:19.610 ,2,0,0.,24.0,0.,24.0,0.,24.0,0.,24.0
1979-07-21 08:33:43.610 ,1,1,0.,24.0,0.,24.0,0.,24.0,0.,24.0
1979-07-21 08:34:07.610 ,1,0,0.,24.0,0.,24.0,0.,24.0,0.,24.0
1979-07-21 08:34:31.610 ,0,1,0.,24.0,0.,24.0,0.,24.0,0.,24.0
1979-07-21 08:34:55.610 ,0,0,0.,24.0,0.,24.0,0.,24.0,0.,24.0